Location: Lane
(33.5226°N, 79.8788°W)
Time: 07:26:45
(UTC+00:00)

Explorer 7 - Pass Details

Date: 08 October 2022
Orbit: 481 x 665 km, 50.3° (Epoch: 28 November)

Event Time Altitude Azimuth Distance (km) Brightness Sun altitude
Rises 11:26:38 0° 178° (S) 2,898 10.6 0.8°
Reaches altitude 10° 11:30:10 10° 150° (SSE) 2,030 10.3 1.5°
Maximum altitude 11:32:12 13° 124° (SE) 1,871 10.8 1.9°
Drops below altitude 10° 11:34:16 10° 98° (E) 2,064 12.4 2.3°
Sets 11:37:55 0° 71° (ENE) 2,996 11.8 3.1°
